Location: Lane
(33.5226°N, 79.8788°W)
Time: 09:14:41
(UTC+00:00)

Transit 2A Rocket - Pass Details

Date: 11 October 2022
Orbit: 589 x 911 km, 66.7° (Epoch: 04 December)

Event Time Altitude Azimuth Distance (km) Brightness Sun altitude
Exits shadow 09:53:48 12° 335° (NNW) 1,810 6.7 -19.0°
Drops below altitude 10° 09:54:23 10° 342° (NNW) 1,925 6.9 -18.9°
Sets 09:57:35 0° 7° (N) 2,855 8.1 -18.2°
